Klamath Falls, OR

9:50 PM PDT on September 19, 2017 (GMT -0700)
Klamath Falls International

Weather History for KLMT - January, 2014

Change the Weather History Date:

Sunday, January 19, 2014

  Actual Average Record
Temperature  
Mean Temperature 33 °F 30 °F  
Max Temperature 50 °F 40 °F 53 °F (1986)
Min Temperature 16 °F 21 °F -6 °F (1988)
Degree Days  
Heating Degree Days 32 35  
Month to date heating degree days 623 671  
Since 1 July heating degree days 3661 3572  
Cooling Degree Days 0 0  
Month to date cooling degree days 0 0  
Year to date cooling degree days 0 0  
Moisture  
Dew Point 22 °F    
Average Humidity 76    
Maximum Humidity 91    
Minimum Humidity 39    
Precipitation  
Precipitation 0.00 in 0.05 in 0.92 in (1969)
Month to date precipitation 0.10 1.38  
Year to date precipitation 0.10 1.38  
Sea Level Pressure  
Sea Level Pressure 30.27 in    
Wind  
Wind Speed 1 mph (NW)    
Max Wind Speed 6 mph    
Max Gust Speed 6 mph    
Visibility 10 miles    
Events      
T = Trace of Precipitation, MM = Missing Value Source: NWS Daily Summary

Daily Weather History Graph

Daily Weather History Graph

Search for Another Location

Airport or City:

Trip Planner

Search our weather history database for the weather conditions in past years. The results will help you decide how hot, cold, wet, or windy it might be!

Date:

Astronomy

Jan. 19, 2014 Rise Set
Actual Time 7:30 AM PST 5:05 PM PST
Civil Twilight 7:00 AM PST 5:35 PM PST
Nautical Twilight 6:25 AM PST 6:10 PM PST
Astronomical Twilight 5:52 AM PST 6:43 PM PST
Moon 8:53 PM PST (1/19) 8:59 AM PST (1/19)
Length of Visible Light 10h 35m
Length of Day
9h 34m
Waning Gibbous, 89% of the Moon is Illuminated
Jan 19
Waning Gibbous
Jan 23
Last Quarter
Jan 30
New
Feb 6
First Quarter
Feb 14
Full

Hourly Weather History & Observations

Time (PST) Temp. Windchill Dew Point Humidity Pressure Visibility Wind Dir Wind Speed Gust Speed Precip Events Conditions
12:53 AM 21.0 °F - 18.0 °F 88% 30.23 in 10.0 mi Calm Calm - N/A   Clear
1:53 AM 21.0 °F - 18.0 °F 88% 30.22 in 10.0 mi Calm Calm - N/A   Clear
2:53 AM 19.0 °F - 17.1 °F 92% 30.22 in 10.0 mi Calm Calm - N/A   Clear
3:53 AM 18.0 °F 11.1 °F 14.0 °F 84% 30.24 in 10.0 mi NW 4.6 mph - N/A   Clear
4:53 AM 19.9 °F 14.9 °F 17.1 °F 89% 30.25 in 10.0 mi ENE 3.5 mph - N/A   Clear
5:53 AM 19.0 °F - 16.0 °F 88% 30.26 in 9.0 mi Calm Calm - N/A   Clear
6:53 AM 21.0 °F - 18.0 °F 88% 30.28 in 10.0 mi Calm Calm - N/A   Clear
7:53 AM 18.0 °F - 14.0 °F 84% 30.31 in 10.0 mi Calm Calm - N/A   Clear
8:53 AM 28.0 °F - 24.1 °F 85% 30.31 in 10.0 mi Calm Calm - N/A   Clear
9:53 AM 30.0 °F - 26.1 °F 85% 30.31 in 10.0 mi Calm Calm - N/A   Clear
10:53 AM 36.0 °F - 28.0 °F 73% 30.30 in 10.0 mi Calm Calm - N/A   Clear
11:53 AM 39.9 °F - 27.0 °F 60% 30.27 in 10.0 mi Calm Calm - N/A   Clear
12:53 PM 43.0 °F 41.3 °F 24.1 °F 47% 30.25 in 10.0 mi NNW 3.5 mph - N/A   Clear
1:53 PM 48.0 °F - 25.0 °F 41% 30.20 in 10.0 mi Calm Calm - N/A   Clear
2:53 PM 48.0 °F - 25.0 °F 41% 30.21 in 10.0 mi South 3.5 mph - N/A   Clear
3:53 PM 48.0 °F - 25.0 °F 41% 30.22 in 10.0 mi South 3.5 mph - N/A   Clear
4:53 PM 39.9 °F 37.8 °F 27.0 °F 60% 30.25 in 10.0 mi NW 3.5 mph - N/A   Clear
5:53 PM 33.1 °F - 25.0 °F 72% 30.28 in 10.0 mi Calm Calm - N/A   Clear
6:53 PM 28.0 °F - 23.0 °F 81% 30.29 in 10.0 mi Calm Calm - N/A   Clear
7:53 PM 26.1 °F - 23.0 °F 88% 30.31 in 10.0 mi Calm Calm - N/A   Clear
8:53 PM 24.1 °F - 21.9 °F 91% 30.30 in 9.0 mi Calm Calm - N/A   Clear
9:53 PM 26.1 °F - 21.9 °F 84% 30.31 in 9.0 mi Calm Calm - N/A   Clear
10:53 PM 24.1 °F - 19.9 °F 84% 30.31 in 9.0 mi Calm Calm - N/A   Clear
11:53 PM 21.0 °F - 18.0 °F 88% 30.31 in 8.0 mi Calm Calm - N/A   Clear